Home   Weather   Beja   Past weeks

Flag for Portugal Past Weather in Beja, Portugal — Yesterday and Last 2 Weeks

Now
66 °F

Passing clouds.


Feels Like: 66 °F
Forecast: 46 / 67 °F
Wind: 9 mph from Northwest

Location: Beja Airport

Current Time: Apr 26, 2017 at 5:09:28 pm

Latest Report: Apr 26, 2017 at 4:00 pm


Visibility: N/A

Pressure: 29.83 "Hg

Humidity: 43%

Dew Point: 43 °F

Location of BejaLocation

Past Weather in Beja — Graph

°F

Beja Temperature Yesterday

Maximum temperature yesterday: 70 °F (at 3:00 pm)
Minimum temperature yesterday: 54 °F (at 8:00 am)
Average temperature yesterday: 61 °F

High & Low Weather Summary for the Past Weeks

 TemperatureHumidityPressure
High86 °F (Apr 18, 4:00 pm)100% (Apr 13, 8:00 am)30.18 "Hg (Apr 13, 8:00 am)
Low48 °F (Apr 26, 5:00 am)18% (Apr 17, 6:00 pm)29.80 "Hg (Apr 11, 6:00 pm)
Average64 °F63%30.01 "Hg
* Reported Apr 11 3:00 pm — Apr 26 3:00 pm, Beja, Weather by CustomWeather, © 2017

Note: Actual official high and low records may vary slightly from our data, if they occured in-between our weather recording intervals... More about our weather records

Advertising

Beja Weather History for the Previous 24 Hours

Scroll right to see more
 ConditionsComfort  
Time TempWeatherWind HumidityBarometerVisibility
3:00 pm
Wed, Apr 26
66 °FPassing clouds.12 mph46%29.86 "HgN/A
2:00 pm64 °FPassing clouds.10 mph49%29.86 "HgN/A
1:00 pm63 °FBroken clouds.10 mph59%29.86 "HgN/A
12:00 pm61 °FBroken clouds.9 mph63%29.89 "HgN/A
11:00 am59 °FBroken clouds.6 mph72%29.86 "HgN/A
10:00 am55 °FBroken clouds.7 mph88%29.86 "HgN/A
9:00 am54 °FFog.7 mph94%29.89 "HgN/A
8:00 am52 °FFog.7 mph100%29.86 "Hg5 mi
7:00 am48 °FLight fog.6 mph100%29.86 "Hg4 mi
6:00 am48 °FClear.7 mph100%29.86 "Hg10 mi
5:00 am48 °FClear.6 mph100%29.86 "Hg10 mi
4:00 am50 °FClear.3 mph94%29.86 "Hg10 mi
3:00 am50 °FClear.6 mph94%29.89 "Hg10 mi
2:00 am52 °FClear.8 mph88%29.89 "Hg10 mi
1:00 am52 °FClear.7 mph88%29.89 "Hg10 mi
12:00 am54 °FClear.7 mph82%29.89 "Hg10 mi
11:00 pm
Tue, Apr 25
55 °FClear.8 mph77%29.92 "Hg10 mi
10:00 pm59 °FClear.10 mph68%29.89 "Hg10 mi
9:00 pm61 °FClear.12 mph72%29.89 "Hg10 mi
8:00 pm63 °FSunny.14 mph68%29.89 "Hg10 mi
7:00 pm68 °FPassing clouds.16 mph56%29.86 "HgN/A
6:00 pm70 °FPassing clouds.14 mph50%29.86 "HgN/A
5:00 pm70 °FPassing clouds.14 mph50%29.86 "HgN/A
Weather by CustomWeather, © 2017

See weather overviewHow to use our weather pages